Snowfall_Accumulation
1.7 3.9 5.9 2.5 1.7 2.2 2.6 3.4 3.5 1.7 0.4 0.9 1.4 1.1 0.2 0.1 0.1 0.3 0.1 0.1 0.1 0.0 0.1 0.0 0.0 0.0 0.0 0.0 0.0 0.0 0.0 0.0 0.0 0.0 0.0 0.0 0.0 0.0 0.0 0.0 0.0 0.0 0.0 0.0
4.8 5.7 1.5 0.6 1.3 2.4 3.5 4.4 4.0 1.8 0.5 1.8 1.9 1.7 0.4 0.2 0.2 0.2 0.2 0.2 0.2 0.1 0.0 0.0 0.0 0.0 0.0 0.0 0.0 0.0 0.0 0.0 0.0 0.0 0.0 0.0 0.0 0.0 0.0 0.0 0.0 0.0 0.0 0.0
6.4 3.3 0.5 1.8 3.0 3.8 3.6 3.7 3.3 2.9 1.4 1.0 2.6 3.3 1.1 0.3 0.1 0.1 0.1 0.1 0.1 0.1 0.1 0.0 0.0 0.0 0.0 0.0 0.0 0.0 0.0 0.0 0.0 0.0 0.0 0.0 0.0 0.0 0.0 0.0 0.0 0.0 0.0 0.0
4.3 1.6 0.9 3.2 3.8 3.7 4.5 1.2 1.7 2.8 4.7 5.5 4.5 8.2 3.0 1.1 0.7 0.3 0.2 0.1 0.2 0.1 0.1 0.0 0.0 0.0 0.1 0.0 0.0 0.0 0.0 0.0 0.0 0.0 0.0 0.0 0.0 0.0 0.0 0.0 0.0 0.0 0.0 0.0
5.6 2.0 1.9 3.6 2.7 2.4 2.7 0.7 1.4 2.8 6.2 7.4 4.6 8.4 4.0 1.7 1.7 1.3 1.0 0.4 0.3 0.1 0.1 0.1 0.1 0.0 0.0 0.0 0.0 0.0 0.0 0.0 0.0 0.0 0.0 0.0 0.1 0.1 0.0 0.0 0.0 0.0 0.0 0.0
3.1 1.3 2.3 2.3 0.9 1.0 1.4 1.6 2.0 3.8 7.8 16.3 5.5 6.3 5.0 3.8 4.0 2.3 1.3 0.6 0.5 0.2 0.2 0.3 0.1 0.1 0.0 0.0 0.0 0.0 0.0 0.0 0.0 0.0 0.0 0.0 0.1 0.1 0.0 0.1 0.0 0.0 0.0 0.0
6.7 3.1 1.8 1.1 3.2 2.7 4.8 12.4 24.0 25.3 25.1 14.1 2.6 4.3 5.0 3.7 2.8 2.7 2.2 1.1 0.6 0.5 0.7 0.6 0.5 0.2 0.2 0.1 0.0 0.0 0.0 0.0 0.0 0.0 0.0 0.0 0.0 0.0 0.1 0.1 0.2 0.1 0.1 0.1
9.2 7.6 3.0 2.0 3.4 5.7 6.2 10.3 18.8 18.0 12.4 6.0 2.8 3.8 4.2 3.2 2.6 2.3 2.1 1.5 0.9 0.8 0.7 0.6 0.6 0.4 0.4 0.3 0.2 0.1 0.1 0.1 0.0 0.0 0.0 0.0 0.0 0.0 0.0 0.1 0.1 0.2 0.1 0.1
9.9 6.7 1.9 1.5 1.6 3.2 7.5 9.9 7.1 12.4 9.1 6.4 4.7 3.2 2.8 2.1 2.1 1.8 2.1 1.7 1.5 1.0 0.7 0.8 0.7 0.6 0.4 0.4 0.3 0.2 0.2 0.1 0.1 0.1 0.1 0.0 0.0 0.0 0.0 0.2 0.3 0.3 0.2 0.2
10.1 9.6 3.4 1.4 1.9 1.9 3.6 6.1 9.8 17.6 15.0 8.3 4.4 3.1 4.0 3.3 2.9 2.3 2.2 2.3 2.1 1.5 1.1 0.9 0.8 0.9 0.7 0.7 0.5 0.2 0.2 0.1 0.1 0.0 0.1 0.1 0.1 0.0 0.1 0.2 0.3 0.3 0.2 0.2
9.0 12.1 7.7 4.2 6.2 6.5 5.6 7.7 11.1 14.5 12.7 10.1 6.1 4.6 4.2 3.9 3.7 3.7 3.1 3.1 3.3 2.8 1.6 1.4 1.4 1.0 0.8 0.6 0.4 0.3 0.2 0.2 0.3 0.1 0.1 0.1 0.2 0.2 0.2 0.2 0.3 0.2 0.2 0.1
8.4 12.8 11.4 5.8 2.7 2.6 4.8 6.5 9.1 15.6 12.5 8.2 7.1 4.8 3.0 3.1 3.2 3.4 3.3 3.4 2.9 3.0 2.2 1.3 1.6 1.2 0.9 0.6 0.6 0.5 0.4 0.3 0.3 0.3 0.3 0.3 0.2 0.2 0.2 0.3 0.2 0.1 0.1 0.1
14.3 19.4 18.2 9.9 5.5 4.2 6.9 6.3 7.1 9.5 10.8 8.7 7.5 4.4 2.0 1.7 1.9 2.3 2.9 3.3 3.2 3.1 2.5 1.8 1.5 1.4 1.7 1.1 1.0 0.8 0.6 0.4 0.3 0.3 0.2 0.3 0.3 0.3 0.3 0.3 0.2 0.1 0.1 0.1
13.8 22.7 15.2 12.2 8.9 8.7 8.8 6.7 6.2 10.2 13.9 8.0 4.3 3.8 2.5 1.9 1.9 2.4 2.8 3.4 3.8 3.2 3.2 2.7 2.2 2.1 1.8 1.6 1.1 1.1 0.6 0.5 0.4 0.4 0.3 0.2 0.2 0.2 0.2 0.2 0.2 0.2 0.1 0.5
15.2 19.8 8.5 4.4 3.7 5.1 5.7 5.0 5.3 7.6 7.5 7.0 3.5 3.2 3.4 3.5 3.4 3.6 3.7 3.6 3.5 3.6 3.6 3.1 3.2 2.7 2.8 2.3 1.5 1.2 0.9 0.8 0.5 0.3 0.4 0.3 0.2 0.3 0.2 0.2 0.3 0.3 0.5 0.5
15.1 17.4 9.0 5.1 2.7 3.9 4.8 3.7 3.8 4.3 3.9 3.9 2.8 2.8 2.4 2.8 3.0 3.4 3.5 3.9 4.1 4.3 3.8 3.5 3.0 2.9 2.9 3.1 2.5 1.6 1.5 1.2 0.9 0.8 0.8 0.5 0.5 0.4 0.6 0.5 0.4 0.7 0.8 1.1
16.1 16.3 15.0 9.4 3.8 6.9 8.9 5.1 4.5 4.5 4.2 4.4 4.9 3.9 2.7 2.7 3.2 4.1 4.3 4.2 4.7 4.9 4.8 4.1 3.3 3.3 3.4 3.1 2.9 2.5 2.4 1.7 1.7 1.7 1.3 1.2 1.1 0.9 1.0 1.1 1.0 1.4 1.5 1.5
12.9 14.9 19.0 14.7 11.1 15.0 6.9 4.0 3.9 4.7 5.1 5.0 4.7 4.0 3.6 3.8 3.9 4.1 4.6 5.1 5.0 4.9 4.6 4.4 4.1 3.2 3.4 3.2 2.9 2.8 2.3 2.0 1.8 1.8 1.8 1.7 1.6 1.7 1.6 1.5 1.7 1.6 1.7 1.8
6.3 13.7 21.9 20.5 16.2 9.1 4.1 3.6 5.3 6.1 6.3 5.4 4.6 3.7 3.2 3.3 3.2 3.4 4.2 5.4 6.2 5.7 5.0 4.6 4.2 3.7 2.9 2.7 2.9 2.6 2.7 2.7 2.6 2.6 2.2 2.2 2.2 2.2 2.2 2.3 2.3 2.3 2.5 2.4
6.3 11.7 22.4 22.2 17.5 9.4 5.0 3.3 3.6 4.9 7.2 4.7 4.7 4.7 4.0 3.9 4.5 4.7 4.5 5.3 5.6 4.9 4.7 4.6 3.5 3.1 2.5 2.6 2.6 2.6 2.9 2.8 3.0 3.2 2.8 2.6 2.5 2.4 2.5 2.5 2.4 2.3 2.6 2.9
10.9 17.2 21.3 17.4 15.0 7.3 4.5 3.3 3.0 6.9 8.5 4.7 4.8 5.4 5.3 5.6 6.1 5.5 4.5 4.4 4.8 4.6 4.5 4.0 3.5 3.2 2.7 2.5 2.4 2.8 3.0 3.3 3.2 2.8 2.5 2.5 2.4 2.6 2.6 2.5 2.6 2.4 2.6 2.6
8.2 11.9 12.2 11.6 14.3 8.5 4.3 4.0 6.7 8.2 5.4 4.8 4.8 4.8 5.2 5.0 4.6 4.2 3.9 4.0 3.8 3.9 4.0 3.9 3.7 3.3 2.9 2.7 2.6 3.1 3.0 2.9 2.6 2.2 2.2 2.4 2.4 2.2 2.2 2.4 2.6 2.5 2.5 2.6
6.4 8.0 8.6 8.2 7.3 5.3 5.1 6.1 6.2 5.5 5.5 4.7 4.9 4.5 4.8 5.0 4.9 4.5 3.6 3.7 3.6 3.8 3.8 3.7 3.4 2.9 2.9 2.8 2.4 3.2 2.9 2.5 2.3 2.4 2.5 2.6 2.3 2.2 2.2 2.4 2.6 2.5 2.3 2.8
4.3 4.1 5.9 6.3 4.4 3.8 3.6 3.8 3.9 4.0 4.9 4.5 4.7 4.9 5.0 5.2 4.9 4.2 3.7 3.5 3.5 3.5 3.8 3.4 3.2 3.2 3.3 3.2 2.5 2.9 2.6 2.3 2.6 2.7 2.3 2.3 2.5 2.3 1.9 2.0 2.0 2.3 3.0 4.0
4.3 3.9 4.8 5.1 3.7 3.0 2.7 2.7 2.9 3.3 3.3 3.4 3.7 4.2 4.6 4.6 4.3 3.9 3.6 3.3 3.3 3.7 3.4 3.4 3.4 3.4 3.7 3.5 2.8 2.4 2.4 2.7 3.1 2.6 2.2 2.0 2.2 2.4 2.0 2.0 2.1 2.8 3.3 5.2
3.8 4.5 5.4 5.3 3.7 4.5 3.6 2.7 2.5 2.8 3.0 3.1 3.4 3.6 3.6 3.7 3.5 3.1 3.1 3.1 3.2 3.0 3.2 3.0 2.9 3.0 3.2 3.1 3.0 2.4 2.6 2.9 3.1 2.8 2.3 2.2 2.3 2.4 2.3 2.2 2.4 1.9 2.4 2.9